Probability
6 4 3 2 1 0 0 0 0 0 0 0 0 0 0 0 0 0 0 0 0 0 0 0 0 0 0 0 0 0 1 1 1 3 4 3 3 2 1 1 2 4 4 3 2 2 1 0 0
2 2 2 2 1 0 0 0 0 0 0 0 0 0 0 0 0 0 0 0 0 0 0 0 0 0 0 0 0 0 1 2 2 3 3 3 4 3 2 3 4 5 4 2 1 1 0 0 0
2 3 2 1 0 0 0 0 0 0 0 0 0 0 0 0 0 0 0 0 0 0 0 0 0 1 1 1 1 1 2 2 2 2 2 2 4 4 3 4 6 6 4 1 0 0 0 0 0
5 5 3 1 0 0 0 0 0 0 0 1 2 1 0 0 0 0 0 0 0 0 0 0 1 2 2 2 2 3 2 1 1 1 1 1 3 4 4 4 6 6 4 2 1 1 1 1 0
7 5 2 0 0 1 1 1 0 1 1 2 3 2 1 0 0 0 0 0 0 0 0 0 2 3 3 3 3 4 3 2 1 0 0 1 3 4 5 5 5 5 3 2 2 2 2 1 1
7 4 1 0 1 2 2 1 1 1 2 2 2 2 1 0 0 0 0 0 0 0 0 0 1 2 3 3 3 4 4 3 2 2 1 1 3 5 6 5 3 3 3 3 3 3 1 1 0
5 2 0 0 1 2 2 1 1 2 2 1 1 1 0 0 0 0 0 0 0 0 0 0 0 1 2 3 3 4 5 4 4 3 2 2 2 4 5 5 2 2 4 5 5 3 1 0 0
2 1 0 0 1 1 1 1 1 2 2 1 0 0 0 0 0 0 0 0 0 0 0 0 0 0 1 1 3 4 5 5 4 4 2 1 1 2 3 3 2 3 5 6 5 3 1 0 0
1 0 0 0 0 0 0 1 1 3 3 1 0 0 1 1 1 0 0 0 0 0 0 0 0 0 0 0 1 3 4 4 3 2 2 1 0 0 1 2 3 3 3 4 3 2 1 0 0
0 0 0 0 0 0 0 1 1 2 3 3 1 0 1 1 1 1 0 0 0 0 0 0 0 0 0 0 0 1 2 1 1 1 1 0 0 0 0 1 2 2 2 2 1 1 0 0 0
0 0 0 0 0 0 0 0 1 2 4 4 3 1 1 1 1 1 0 0 0 0 0 0 0 0 0 0 0 0 0 0 0 0 0 0 0 0 0 1 1 1 1 0 0 0 0 0 0
0 0 0 0 0 0 0 0 1 2 4 5 5 3 2 2 1 1 0 0 1 1 0 0 0 0 1 1 0 0 0 0 0 0 0 0 0 0 0 0 0 0 0 0 0 0 0 0 0
0 0 0 0 0 0 0 0 1 3 4 5 6 5 4 5 3 2 1 1 2 2 1 1 1 1 2 2 1 0 0 0 0 0 0 0 0 0 0 0 0 0 0 0 0 0 0 0 0
0 0 0 0 0 0 0 0 1 3 4 5 5 5 6 7 7 6 5 3 3 3 2 2 2 3 3 3 1 0 0 0 1 1 0 0 0 0 0 0 0 0 0 0 0 0 0 0 0
0 0 0 0 0 0 0 0 1 2 3 3 5 5 6 8 10 11 10 8 5 4 4 3 4 3 3 3 2 1 0 1 2 2 1 0 0 0 0 0 0 0 0 0 0 0 0 0 0
0 0 0 0 0 0 0 0 0 1 1 2 4 6 7 9 11 13 13 12 9 7 6 5 5 4 3 3 3 1 1 2 3 3 1 1 0 0 0 0 0 0 0 0 0 0 0 0 0
0 0 0 0 0 0 0 0 0 1 2 3 6 9 10 11 12 13 15 15 13 11 10 8 6 5 4 3 3 3 2 3 4 3 2 1 0 0 0 0 0 0 0 0 0 0 0 0 0
0 0 0 0 0 1 1 0 0 1 4 5 8 10 12 13 14 15 17 17 14 12 11 9 8 6 5 4 4 3 3 4 5 3 1 1 0 0 0 0 0 0 0 0 0 0 0 0 0
0 0 0 0 1 2 2 1 0 1 4 7 9 10 11 13 15 16 17 16 13 11 11 9 8 7 6 5 5 4 4 4 5 3 1 0 0 0 0 0 0 0 0 0 0 0 0 0 0
0 0 0 0 1 2 2 1 0 2 4 7 8 9 9 12 16 17 16 15 13 13 12 10 9 10 8 6 5 5 4 4 4 4 3 1 1 1 0 0 0 0 0 0 0 0 0 0 0
0 0 0 0 1 1 1 0 0 1 4 6 7 8 10 14 17 19 17 16 17 17 15 12 12 13 11 7 6 5 5 4 3 4 4 3 2 2 1 0 0 0 0 0 0 0 0 0 0
0 0 0 0 0 0 0 0 0 1 4 6 6 8 12 16 19 19 18 20 22 22 18 14 14 15 14 11 8 7 6 4 3 3 4 4 3 2 1 0 0 0 0 0 0 0 0 0 0
1 1 0 0 0 0 0 0 0 1 3 5 6 8 13 18 20 19 18 20 23 23 20 17 17 17 16 13 11 8 5 3 2 2 3 4 3 3 2 1 2 2 1 1 1 0 0 0 0
2 1 0 0 0 0 0 0 0 0 2 4 5 8 13 18 19 18 18 21 23 23 21 19 18 17 14 12 10 8 5 3 2 1 2 3 4 4 4 5 5 5 4 3 3 1 0 0 0
1 1 0 0 0 0 0 0 1 1 2 3 4 7 12 16 17 17 19 23 25 24 20 19 18 16 13 12 11 9 7 5 4 2 1 2 4 6 6 6 5 5 6 6 5 3 1 1 1
1 0 0 0 0 0 0 1 2 3 3 4 5 9 13 15 16 17 19 23 26 26 23 21 21 18 16 15 13 12 10 8 6 3 2 2 3 4 4 3 2 3 6 7 6 4 3 2 2
1 0 0 0 0 0 0 1 2 4 5 7 8 11 15 17 17 18 19 20 24 27 27 26 25 23 21 18 16 15 13 12 9 5 3 3 3 3 3 2 2 3 6 8 7 5 4 3 3
1 0 0 0 0 0 1 2 2 4 6 7 9 13 17 19 19 20 20 19 21 26 30 31 29 27 25 23 22 21 19 17 13 8 6 6 5 6 6 5 4 5 7 8 7 6 4 3 3
0 0 0 0 0 0 1 2 3 5 6 8 10 13 19 22 21 21 21 20 21 26 32 34 32 31 29 28 28 27 26 23 17 11 10 10 9 9 9 7 6 5 5 5 6 5 4 3 3
0 0 1 1 1 0 1 2 4 6 7 8 10 14 21 24 22 22 22 22 24 28 33 35 33 33 32 31 30 30 30 26 19 14 14 13 10 9 8 7 5 4 4 4 4 4 4 3 3
Wind_Speed
9 7 3 1 4 5 6 6 9 9 7 8 11 11 10 8 6 7 3 8 8 5 3 6 9 10 11 11 12 12 13 13 14 14 14 15 15 16 17 17 16 16 17 17 17 17 17 17 17
5 4 1 3 5 5 5 7 11 11 12 12 12 13 11 9 9 9 5 8 8 6 4 6 10 11 11 11 12 12 13 14 14 14 15 15 15 16 16 16 16 16 16 16 16 16 16 16 16
5 3 2 3 3 5 6 9 12 13 11 10 7 7 6 7 8 6 7 10 7 6 4 6 11 11 11 11 11 12 13 13 14 14 15 15 16 15 15 15 15 16 16 16 15 15 15 15 15
3 2 2 4 5 5 9 10 13 14 10 9 9 8 5 6 6 10 12 11 9 6 4 7 11 11 11 11 11 11 12 12 13 14 14 14 15 15 14 14 14 15 15 15 15 15 14 14 13
2 3 5 5 6 7 10 11 12 11 7 10 11 10 6 6 12 14 13 12 10 6 4 6 11 11 10 10 11 11 12 12 13 13 13 13 14 14 14 13 14 14 13 14 13 13 13 12 12
3 3 5 4 7 7 9 12 14 15 14 13 12 10 5 7 12 12 12 10 10 8 5 6 10 11 10 10 10 10 11 12 12 12 12 12 13 13 13 13 13 13 12 12 11 11 10 10 9
3 4 4 6 7 7 8 10 12 13 13 9 10 8 5 7 10 12 11 10 9 8 6 4 4 7 9 10 9 9 10 11 11 11 11 12 12 12 12 11 11 11 11 10 10 9 8 7 6
4 4 4 5 7 6 8 8 10 13 10 12 8 8 6 8 10 11 11 9 8 6 6 5 3 3 3 4 8 9 9 9 10 10 10 10 10 11 10 9 9 10 9 9 8 7 6 5 4
4 5 4 5 7 6 10 12 9 9 11 7 6 8 10 12 13 11 9 7 6 6 5 5 4 4 3 3 6 6 7 7 7 7 9 7 4 4 5 7 8 9 8 7 6 6 4 3 3
5 5 6 6 8 9 12 14 10 9 12 10 11 11 11 11 11 11 10 8 7 7 6 5 5 4 4 4 3 2 2 2 2 2 3 2 2 2 4 6 7 8 7 6 5 4 2 1 1
5 6 6 7 9 10 11 10 9 12 9 13 15 14 11 11 9 9 8 8 8 7 7 5 5 5 4 3 3 1 1 1 1 2 3 2 2 1 2 1 2 3 3 2 1 1 0 0 1
7 6 7 7 9 10 10 9 8 9 11 14 14 13 11 11 10 9 8 7 7 7 6 6 5 5 4 4 3 3 2 2 2 2 3 3 2 1 1 1 1 1 1 1 1 1 1 1 2
8 5 6 8 9 10 11 10 10 10 13 13 13 12 11 11 9 8 8 7 7 6 6 6 5 5 4 4 2 3 2 2 2 2 3 4 3 2 2 1 1 2 2 2 2 2 2 2 2
5 6 6 8 10 11 14 10 9 11 14 13 13 11 11 11 10 8 8 7 7 7 7 5 5 5 5 4 3 3 3 2 2 2 3 4 3 3 3 2 2 2 2 2 3 3 2 2 1
4 7 4 4 7 7 12 7 10 14 14 13 12 11 11 10 11 11 10 9 8 8 7 6 5 4 4 4 3 2 2 2 2 2 3 4 4 3 3 2 2 2 2 2 1 1 1 1 1
4 5 2 3 6 6 10 7 8 12 14 12 11 11 10 9 10 10 10 9 9 8 7 6 6 5 4 3 3 2 2 2 2 2 2 3 4 3 3 2 1 1 1 1 1 1 1 1 1
3 2 3 4 5 6 6 7 10 11 13 11 11 10 10 9 9 9 10 10 10 9 8 6 5 5 4 3 2 2 2 2 2 2 2 2 3 3 2 2 1 1 1 1 1 1 1 1 1
3 3 4 5 5 5 5 6 11 12 13 12 10 10 10 11 11 11 10 10 9 9 8 7 6 5 4 3 2 1 1 1 1 2 2 3 2 3 3 2 1 1 1 0 1 1 1 1 2
6 4 4 5 5 5 6 8 11 12 11 11 10 10 11 10 9 10 11 11 9 8 7 7 6 5 4 2 2 2 1 1 1 1 2 3 2 2 2 2 1 1 1 1 1 1 1 0 1
4 4 2 1 3 5 5 6 10 12 14 14 14 13 12 9 8 9 9 10 9 9 8 7 7 6 5 3 3 2 2 1 1 1 2 2 2 2 3 2 2 2 1 0 1 1 1 1 1
4 5 6 5 2 4 5 0 4 6 7 9 10 11 12 14 14 12 11 10 10 10 9 8 7 6 6 5 2 2 1 1 1 0 1 1 2 2 2 2 2 2 2 1 1 2 3 2 1
4 5 7 7 5 0 4 2 5 5 5 8 10 11 12 12 12 12 12 11 12 11 9 8 7 6 5 5 4 4 3 2 3 2 2 1 1 2 2 2 2 2 2 2 2 2 2 2 1
5 5 6 6 5 2 2 3 6 3 6 9 11 12 12 13 14 14 14 13 12 11 9 8 7 6 6 5 6 5 3 3 1 1 2 1 1 1 2 2 2 2 2 2 1 1 1 2 2
5 6 6 6 5 1 4 4 5 6 10 9 9 10 11 13 13 13 12 11 10 10 9 8 8 6 6 6 6 6 5 4 3 2 2 1 0 0 1 1 1 1 1 1 2 2 2 1 1
5 7 4 4 4 4 3 3 8 9 9 11 10 10 11 13 13 13 12 12 11 12 11 9 9 7 7 7 6 6 6 5 5 4 4 3 1 1 1 1 1 1 1 2 2 2 1 1 1
3 10 9 5 5 4 2 4 8 6 7 7 7 9 9 10 12 13 13 13 13 13 12 11 10 8 8 7 6 5 5 4 3 4 4 4 3 2 2 2 1 1 2 2 2 1 1 1 0
4 4 9 8 3 1 3 4 6 2 1 3 5 6 9 10 10 11 11 12 12 13 13 12 11 9 9 8 7 5 5 5 5 4 3 3 3 2 3 2 2 2 2 2 2 1 0 1 1
7 7 6 6 5 2 2 3 5 4 3 3 5 7 7 8 8 8 8 9 11 11 11 11 11 10 9 8 7 7 6 5 5 4 4 4 3 3 3 2 2 2 2 2 2 1 0 1 0
1 3 5 5 6 7 3 6 7 9 8 9 8 8 8 9 9 9 8 8 9 9 9 10 10 8 8 8 7 6 5 5 5 5 5 4 3 3 3 3 2 2 2 2 2 1 1 1 1
5 5 7 6 4 5 5 7 7 9 8 9 8 7 7 7 8 7 7 8 8 9 9 10 10 9 9 8 7 6 6 6 5 5 5 4 4 3 3 3 3 2 2 2 1 1 1 1 1
Wind_Direction
166 168 162 127 57 56 84 89 95 85 67 65 76 81 80 69 93 120 150 133 132 126 108 103 98 92 87 84 81 80 85 89 92 94 95 96 99 101 101 102 103 105 108 109 110 111 112 113 114
169 171 125 58 78 81 82 100 96 100 114 106 86 84 79 75 90 113 129 138 131 124 115 110 104 97 92 89 86 84 87 91 93 94 96 98 102 102 102 103 104 105 107 110 111 112 114 114 114
176 176 83 69 100 127 115 109 108 109 107 100 93 72 74 102 112 123 145 141 125 116 114 117 109 104 98 94 91 89 88 92 95 97 97 99 104 103 103 104 106 107 108 110 110 111 113 115 115
152 98 56 81 102 120 122 124 115 110 91 87 95 76 74 106 116 131 140 136 124 121 119 121 116 110 105 100 96 94 94 94 97 99 100 100 105 106 106 107 108 109 109 109 110 110 112 113 115
93 85 63 74 91 101 112 118 114 108 96 95 97 101 93 97 117 129 137 135 131 131 128 124 122 118 113 107 103 99 98 100 101 100 99 100 105 107 107 108 110 110 110 110 110 110 111 114 115
64 69 77 92 96 99 110 115 108 106 112 110 107 106 106 121 126 137 138 138 137 138 138 130 129 126 122 117 111 107 104 104 104 101 100 103 107 109 110 110 112 111 109 109 110 111 112 111 109
118 105 121 121 111 111 125 123 116 124 128 127 125 104 118 138 142 141 137 135 136 139 136 129 135 132 131 126 120 115 113 111 110 107 102 106 112 114 114 115 115 115 113 113 113 115 114 110 109
151 111 109 118 120 119 123 114 125 126 122 134 129 124 152 162 142 132 132 133 135 141 144 145 140 133 133 131 131 126 121 120 117 113 110 113 118 121 121 120 122 123 123 122 122 121 119 119 121
128 94 131 150 139 135 119 109 109 112 121 130 111 129 150 142 130 126 125 126 138 145 153 159 159 155 153 154 148 137 131 130 126 120 121 114 106 116 126 132 134 135 135 135 137 138 137 133 131
124 128 171 166 148 141 129 126 124 110 109 109 112 123 134 133 130 133 140 147 153 159 167 165 161 163 164 162 132 126 127 131 124 121 120 112 119 141 143 146 152 152 151 152 159 167 164 154 136
131 140 146 136 139 132 129 128 117 121 128 142 143 146 143 138 140 143 147 150 158 163 163 166 167 165 164 148 141 148 135 137 145 152 147 141 133 137 130 134 151 150 157 151 168 204 219 216 217
112 126 127 133 134 127 131 129 118 131 150 152 148 149 146 148 153 155 150 149 150 150 156 159 161 153 155 143 155 162 164 161 170 169 160 147 140 144 148 152 162 163 170 175 200 252 248 255 240
111 121 118 124 122 124 120 125 122 133 142 146 147 147 150 154 157 159 152 146 145 146 147 151 146 142 139 135 158 161 178 176 175 161 158 152 149 159 162 168 170 179 180 179 187 224 244 242 239
138 121 119 122 124 128 123 126 118 145 148 149 152 157 161 160 157 152 149 146 146 148 148 148 140 139 132 135 150 158 168 175 164 160 162 154 150 153 155 155 171 190 185 183 189 202 209 213 197
116 103 91 120 121 129 115 113 144 156 153 154 161 163 164 163 160 161 162 159 155 153 152 152 150 143 136 138 142 140 161 161 166 173 163 152 151 154 153 153 180 200 189 179 176 190 169 164 134
70 78 116 213 141 147 118 151 171 161 156 162 169 168 167 169 167 166 163 160 155 152 155 159 154 149 148 145 134 130 144 148 170 173 165 161 154 152 147 151 182 183 158 155 155 143 119 111 107
47 140 190 219 181 154 127 165 179 171 161 168 172 170 168 168 168 167 165 163 159 158 158 159 149 155 158 153 144 137 135 152 168 161 164 170 163 156 150 160 188 159 129 140 171 133 147 142 140
220 197 202 201 197 155 150 174 172 176 171 173 175 174 170 171 176 171 165 163 159 160 159 158 156 161 154 142 120 96 94 131 152 165 177 166 169 161 150 157 168 148 129 137 140 145 144 155 155
197 197 212 226 179 148 167 170 178 177 177 177 179 181 179 180 176 167 165 163 159 160 160 159 158 166 150 139 142 143 172 188 179 192 188 172 167 159 150 157 155 147 156 189 178 156 138 136 124
209 184 183 199 146 133 157 182 184 181 186 184 183 185 185 176 169 170 168 168 168 169 169 164 165 170 168 168 169 168 166 185 193 196 183 184 172 167 164 157 169 160 159 161 161 144 148 191 157
232 179 176 174 90 79 103 7 201 205 193 191 191 187 185 182 178 177 175 175 171 174 177 174 173 170 173 168 147 120 78 48 51 155 200 203 173 176 171 166 166 170 162 180 196 166 162 183 222
234 204 166 149 118 196 123 182 261 214 208 199 198 193 190 190 182 179 177 178 180 182 178 174 172 171 171 162 157 158 165 183 207 200 198 207 177 171 166 156 155 163 162 174 199 168 170 159 190
196 158 134 131 127 95 44 133 267 220 208 213 205 201 195 189 184 185 184 183 183 179 175 174 170 171 170 168 168 166 177 190 187 164 160 181 195 178 159 152 151 159 159 165 163 144 153 160 175
146 77 49 58 80 122 221 165 247 218 208 210 205 200 195 189 187 188 187 179 177 176 173 171 170 176 175 174 175 177 182 179 168 174 171 172 174 194 158 134 152 163 159 160 167 163 155 164 168
102 92 46 10 21 245 228 173 237 228 211 202 196 199 196 189 185 185 184 181 181 178 177 175 174 180 182 180 184 185 183 178 179 183 178 168 168 193 209 164 164 166 169 161 147 141 148 165 186
174 134 152 184 204 259 290 226 252 231 206 191 182 184 177 181 185 189 189 186 183 180 178 176 179 184 185 184 188 188 182 175 180 182 171 174 181 192 186 159 143 136 136 136 127 126 160 147 158
159 165 164 143 161 141 270 283 307 294 188 165 161 167 176 180 181 189 190 186 183 181 181 179 180 183 185 185 179 181 181 177 177 176 166 167 176 175 158 145 136 130 123 126 122 109 143 126 132
165 156 104 120 147 197 266 256 230 238 221 193 178 176 183 176 173 181 189 187 184 183 180 176 179 184 184 184 182 184 184 181 175 166 167 169 174 158 143 135 126 112 99 103 110 105 44 92 56
169 123 119 126 151 151 194 259 226 200 192 188 190 182 173 175 174 177 184 176 173 170 169 173 177 176 178 183 185 181 179 176 169 165 164 162 161 149 142 134 123 116 104 99 105 129 101 98 63
169 172 145 149 199 161 163 251 238 193 194 186 185 180 162 166 169 169 167 160 160 164 168 173 178 178 182 181 178 176 171 163 161 161 160 154 149 145 140 134 122 119 108 103 111 113 102 102 94